Hourly Weather Chachapoyas

Today, 30 September, Wednesday

Time Temperature Precipitation Wind Pressure Humidity
00:00 +13°C° 1 mm 1 mps 573 mmHg 97%
01:00 +13°C° 1 mm 1 mps 572 mmHg 97%
02:00 +13°C° 0.1 mm 1 mps 572 mmHg 97%
03:00 +13°C° 0.1 mm 1 mps 572 mmHg 97%
04:00 +13°C° 0.1 mm 1 mps 572 mmHg 96%
05:00 +13°C° 0.4 mm 1 mps 572 mmHg 96%
06:00 +13°C° 0.4 mm 1 mps 573 mmHg 96%
07:00 +13°C° 0.4 mm 1 mps 574 mmHg 97%
08:00 +14°C° 0.4 mm 1 mps 574 mmHg 95%
09:00 +14°C° 0.4 mm 1 mps 575 mmHg 93%
10:00 +15°C° 0.4 mm 1 mps 575 mmHg 91%
11:00 +15°C° 0.4 mm 1 mps 574 mmHg 91%
12:00 +15°C° 0.4 mm 1 mps 574 mmHg 91%
13:00 +15°C° 0.4 mm 1 mps 573 mmHg 91%
14:00 +15°C° 0.2 mm 1 mps 573 mmHg 89%
15:00 +16°C° 0.2 mm 1 mps 573 mmHg 86%
16:00 +16°C° 0.2 mm 1 mps 572 mmHg 83%
17:00 +15°C° 0.1 mm 1 mps 572 mmHg 87%
18:00 +14°C° 0.1 mm 1 mps 572 mmHg 92%
19:00 +12°C° 0.1 mm 0 mps 572 mmHg 96%
20:00 +12°C° 0 mm 0 mps 572 mmHg 95%
21:00 +13°C° 0 mm 1 mps 572 mmHg 95%
22:00 +13°C° 0 mm 1 mps 572 mmHg 94%
23:00 +12°C° 0 mm 1 mps 572 mmHg 94%

Tomorrow, 1 October, Thursday

Time Temperature Precipitation Wind Pressure Humidity
00:00 +12°C° 0 mm 1 mps 572 mmHg 94%
01:00 +12°C° 0 mm 1 mps 572 mmHg 95%
02:00 +11°C° 0 mm 1 mps 571 mmHg 95%
03:00 +11°C° 0 mm 1 mps 571 mmHg 95%
04:00 +11°C° 0 mm 1 mps 570 mmHg 95%
05:00 +11°C° 0 mm 1 mps 571 mmHg 94%
06:00 +12°C° 0 mm 1 mps 572 mmHg 92%
07:00 +13°C° 0 mm 1 mps 572 mmHg 91%
08:00 +15°C° 0.2 mm 1 mps 574 mmHg 85%
09:00 +18°C° 0.2 mm 1 mps 575 mmHg 79%
10:00 +19°C° 0.2 mm 1 mps 576 mmHg 74%
11:00 +18°C° 0.8 mm 1 mps 575 mmHg 79%
12:00 +16°C° 0.8 mm 1 mps 574 mmHg 84%
13:00 +15°C° 0.8 mm 1 mps 573 mmHg 90%
14:00 +16°C° 0.5 mm 1 mps 572 mmHg 88%
15:00 +16°C° 0.5 mm 1 mps 572 mmHg 86%
16:00 +16°C° 0.5 mm 1 mps 572 mmHg 85%
17:00 +15°C° 0.1 mm 1 mps 571 mmHg 89%
18:00 +14°C° 0.1 mm 1 mps 571 mmHg 92%
19:00 +13°C° 0.1 mm 1 mps 571 mmHg 96%
20:00 +12°C° 0 mm 1 mps 571 mmHg 96%
21:00 +12°C° 0 mm 1 mps 571 mmHg 96%
22:00 +11°C° 0 mm 1 mps 571 mmHg 96%
23:00 +11°C° 0 mm 1 mps 571 mmHg 96%

Day after tomorrow, 2 October, Friday

Time Temperature Precipitation Wind Pressure Humidity
00:00 +11°C° 0 mm 1 mps 570 mmHg 95%
01:00 +11°C° 0 mm 1 mps 570 mmHg 95%
02:00 +11°C° 0 mm 1 mps 570 mmHg 94%
03:00 +11°C° 0 mm 1 mps 569 mmHg 94%
04:00 +11°C° 0 mm 1 mps 569 mmHg 93%
05:00 +11°C° 0 mm 1 mps 570 mmHg 91%
06:00 +12°C° 0 mm 1 mps 570 mmHg 90%
07:00 +13°C° 0 mm 1 mps 571 mmHg 88%
08:00 +14°C° 0 mm 1 mps 572 mmHg 85%
09:00 +15°C° 0 mm 1 mps 573 mmHg 82%
10:00 +16°C° 0 mm 1 mps 573 mmHg 79%
11:00 +16°C° 0.1 mm 1 mps 573 mmHg 80%
12:00 +16°C° 0.1 mm 1 mps 572 mmHg 82%
13:00 +15°C° 0.1 mm 1 mps 572 mmHg 83%
14:00 +15°C° 0.1 mm 1 mps 571 mmHg 84%
15:00 +15°C° 0.1 mm 1 mps 571 mmHg 86%
16:00 +14°C° 0.1 mm 1 mps 570 mmHg 87%
17:00 +14°C° 0 mm 1 mps 570 mmHg 89%
18:00 +13°C° 0 mm 1 mps 570 mmHg 91%
19:00 +12°C° 0 mm 1 mps 570 mmHg 92%
20:00 +12°C° 0 mm 1 mps 570 mmHg 92%
21:00 +11°C° 0 mm 1 mps 570 mmHg 92%
22:00 +11°C° 0 mm 1 mps 570 mmHg 93%
23:00 +11°C° 0 mm 1 mps 570 mmHg 92%

3 October, Saturday

Time Temperature Precipitation Wind Pressure Humidity
00:00 +11°C° 0 mm 1 mps 570 mmHg 92%
01:00 +10°C° 0 mm 1 mps 570 mmHg 92%
02:00 +10°C° 0 mm 1 mps 570 mmHg 92%
03:00 +10°C° 0 mm 1 mps 570 mmHg 92%
04:00 +10°C° 0 mm 1 mps 570 mmHg 92%
05:00 +11°C° 0 mm 1 mps 570 mmHg 90%
06:00 +12°C° 0 mm 1 mps 571 mmHg 88%
07:00 +12°C° 0 mm 1 mps 572 mmHg 87%
08:00 +14°C° 0 mm 1 mps 573 mmHg 80%
09:00 +16°C° 0 mm 1 mps 574 mmHg 73%
10:00 +19°C° 0 mm 1 mps 574 mmHg 66%
11:00 +18°C° 0.3 mm 2 mps 574 mmHg 67%
12:00 +18°C° 0.3 mm 2 mps 573 mmHg 68%
13:00 +18°C° 0.3 mm 2 mps 573 mmHg 70%
14:00 +18°C° 0.4 mm 2 mps 572 mmHg 70%
15:00 +18°C° 0.4 mm 2 mps 572 mmHg 70%
16:00 +18°C° 0.4 mm 2 mps 572 mmHg 70%
17:00 +17°C° 0.1 mm 2 mps 572 mmHg 78%
18:00 +15°C° 0.1 mm 1 mps 571 mmHg 86%
19:00 +13°C° 0.1 mm 1 mps 570 mmHg 93%
20:00 +13°C° 0 mm 1 mps 571 mmHg 93%
21:00 +12°C° 0 mm 1 mps 571 mmHg 93%
22:00 +12°C° 0 mm 1 mps 572 mmHg 93%
23:00 +12°C° 0 mm 1 mps 571 mmHg 93%

4 October, Sunday

Time Temperature Precipitation Wind Pressure Humidity
00:00 +11°C° 0 mm 1 mps 571 mmHg 93%
01:00 +11°C° 0 mm 1 mps 571 mmHg 93%
02:00 +12°C° 0 mm 1 mps 571 mmHg 93%
03:00 +12°C° 0 mm 1 mps 571 mmHg 92%
04:00 +12°C° 0 mm 1 mps 572 mmHg 92%
05:00 +13°C° 0.3 mm 1 mps 572 mmHg 93%
06:00 +13°C° 0.3 mm 1 mps 572 mmHg 94%
07:00 +13°C° 0.3 mm 1 mps 573 mmHg 95%
08:00 +13°C° 0.7 mm 1 mps 573 mmHg 95%
09:00 +13°C° 0.7 mm 1 mps 574 mmHg 95%
10:00 +13°C° 0.7 mm 1 mps 574 mmHg 94%
11:00 +14°C° 0.5 mm 1 mps 574 mmHg 94%
12:00 +14°C° 0.5 mm 1 mps 573 mmHg 93%
13:00 +14°C° 0.5 mm 1 mps 573 mmHg 93%
14:00 +14°C° 0.5 mm 1 mps 572 mmHg 93%
15:00 +14°C° 0.5 mm 1 mps 572 mmHg 93%
16:00 +13°C° 0.5 mm 1 mps 571 mmHg 93%
17:00 +13°C° 0 mm 1 mps 571 mmHg 94%
18:00 +12°C° 0 mm 1 mps 571 mmHg 95%
19:00 +12°C° 0 mm 1 mps 572 mmHg 95%
20:00 +12°C° 0.1 mm 1 mps 572 mmHg 95%
21:00 +12°C° 0.1 mm 1 mps 572 mmHg 96%
22:00 +12°C° 0.1 mm 2 mps 573 mmHg 96%
23:00 +12°C° 0.2 mm 1 mps 572 mmHg 96%

5 October, Monday

Time Temperature Precipitation Wind Pressure Humidity
00:00 +12°C° 0.2 mm 1 mps 572 mmHg 96%
01:00 +12°C° 0.2 mm 1 mps 572 mmHg 96%
02:00 +12°C° 0.2 mm 1 mps 572 mmHg 96%
03:00 +12°C° 0.2 mm 1 mps 572 mmHg 96%
04:00 +12°C° 0.2 mm 1 mps 571 mmHg 96%
05:00 +12°C° 0 mm 1 mps 572 mmHg 94%
06:00 +12°C° 0 mm 1 mps 572 mmHg 93%
07:00 +13°C° 0 mm 1 mps 573 mmHg 91%
08:00 +15°C° 0.3 mm 1 mps 574 mmHg 85%
09:00 +16°C° 0.3 mm 2 mps 575 mmHg 79%
10:00 +18°C° 0.3 mm 2 mps 576 mmHg 73%
11:00 +19°C° 0.8 mm 2 mps 575 mmHg 72%
12:00 +19°C° 0.8 mm 2 mps 575 mmHg 70%
13:00 +19°C° 0.8 mm 2 mps 574 mmHg 69%
14:00 +19°C° 0.6 mm 2 mps 574 mmHg 72%
15:00 +18°C° 0.6 mm 2 mps 573 mmHg 74%
16:00 +18°C° 0.6 mm 1 mps 572 mmHg 77%
17:00 +16°C° 0.2 mm 1 mps 572 mmHg 82%
18:00 +14°C° 0.2 mm 1 mps 571 mmHg 87%
19:00 +13°C° 0.2 mm 1 mps 571 mmHg 92%
20:00 +13°C° 0 mm 1 mps 571 mmHg 92%
21:00 +12°C° 0 mm 1 mps 571 mmHg 93%
22:00 +12°C° 0 mm 1 mps 571 mmHg 94%
23:00 +11°C° 0 mm 1 mps 571 mmHg 94%
Show more